Location: Moscow
(55.7500°N, 37.5830°E)
Time: 02:48:40
(UTC+03:00)

N. Korean satellite - Pass Details

Date: 05 March 2021
Orbit: 452 x 499 km, 97.2° (Epoch: 22 April)

Event Time Altitude Azimuth Distance (km) Brightness Sun altitude
Rises 05:53:22 0° 17° (NNE) 2,524 10.5 -11.7°
Reaches altitude 10° 05:55:27 10° 21° (NNE) 1,650 9.6 -11.4°
Maximum altitude 05:58:56 56° 101° (E) 578 7.3 -10.9°
Drops below altitude 10° 06:02:28 10° 181° (S) 1,663 9.2 -10.4°
Sets 06:04:34 0° 185° (S) 2,547 10.1 -10.1°
